STARLINK-34537 (64778 NORAD) Tracking and Keplerian Element Data

This shows tracking and keplerian element data for the satellite.

Feedback or suggestion? Click here.




ElementValue
Catalog64778
NameSTARLINK-34537
Epoch Orbit2688
Epoch Day354.06501058
Epoch Year2025
RAAN231.5022
Inclination53.1584
Eccentricity5.08E-05
Argument of Perigee80.0054
Mean Anonmoly280.1008
Mean Motion15.39638043
Decay Rate0.00025921
L11 64778U 25147Z 25354.06501058 .00025921 00000+0 65540-3 0 9996
L22 64778 53.1584 231.5022 0000508 80.0054 280.1008 15.39638043 26880



Live tracking and technical data element details for STARLINK-34537 (NORAD 64778). STARLINK-34537 can be tracked NOW for your location showing map with azimuth and elevation plus other details from your city location.







IsCatalogInMostPopularTable: catalog: 64778, numindb: 8
Update: records affected: 1



GetName: 64778 STARLINK-34537

Hit Count: updated at: Mon, 20 Apr 2026 10:22:46 GMT